Weather History for KMLT - May, 2013

Change the Weather History Date:

Thursday, May 16, 2013

  Actual Average Record
Temperature  
Mean Temperature 59 °F 53 °F  
Max Temperature 69 °F 65 °F 93 °F (1932)
Min Temperature 48 °F 42 °F 24 °F (1913)
Degree Days  
Heating Degree Days 6 12  
Month to date heating degree days 151 226  
Since 1 July heating degree days 7434 8147  
Cooling Degree Days 0 0  
Month to date cooling degree days 0 0  
Year to date cooling degree days 0 0  
Growing Degree Days 8 (Base 50)    
Moisture  
Dew Point 46 °F    
Average Humidity 68    
Maximum Humidity 93    
Minimum Humidity 43    
Precipitation  
Precipitation T in 0.09 in 1.26 in (2006)
Month to date precipitation 1.05 1.64  
Year to date precipitation 7.43 13.37  
Snow  
Snow 0.00 in - - ()
Month to date snowfall 0.0  
Snow Depth 0.00 in    
Sea Level Pressure  
Sea Level Pressure 29.61 in    
Wind  
Wind Speed 6 mph (WNW)    
Max Wind Speed 22 mph    
Max Gust Speed 30 mph    
Visibility 9 miles    
Events Thunderstorm    
T = Trace of Precipitation, MM = Missing Value Source: NWS Daily Summary

Daily Weather History Graph

Daily Weather History Graph

Search for Another Location

Airport or City:

Trip Planner

Search our weather history database for the weather conditions in past years. The results will help you decide how hot, cold, wet, or windy it might be!

Date:

Astronomy

May. 16, 2013 Rise Set
Actual Time 5:02 AM EDT 8:00 PM EDT
Civil Twilight 4:27 AM EDT 8:35 PM EDT
Nautical Twilight 3:42 AM EDT 9:20 PM EDT
Astronomical Twilight 2:49 AM EDT 10:14 PM EDT
Moon 10:37 AM EDT (5/16) 12:14 AM EDT (5/16)
Length of Visible Light 16h 08m
Length of Day
14h 58m
Waxing Crescent, 35% of the Moon is Illuminated
May 16
Waxing Crescent
May 18
First Quarter
May 25
Full
May 31
Last Quarter
Jun 8
New

Hourly Weather History & Observations

Time (EDT) Temp. Dew Point Humidity Pressure Visibility Wind Dir Wind Speed Gust Speed Precip Events Conditions
12:46 AM 48.2 °F 46.4 °F 93% 29.65 in 6.0 mi SSE 8.1 mph - 0.01 in   Overcast
12:53 AM 48.0 °F 46.0 °F 93% 29.67 in 6.0 mi Variable 3.5 mph - 0.01 in   Overcast
1:53 AM 48.0 °F 46.0 °F 93% 29.64 in 6.0 mi Variable 4.6 mph - N/A   Overcast
2:53 AM 48.0 °F 46.0 °F 93% 29.61 in 6.0 mi Variable 3.5 mph - N/A   Overcast
3:01 AM 48.2 °F 46.4 °F 93% 29.59 in 6.0 mi Variable 4.6 mph - N/A   Overcast
3:53 AM 48.0 °F 46.0 °F 93% 29.60 in 10.0 mi Variable 5.8 mph - N/A   Overcast
4:53 AM 48.0 °F 46.9 °F 96% 29.60 in 7.0 mi Calm Calm - N/A   Overcast
5:21 AM 48.2 °F 46.4 °F 93% 29.58 in 8.0 mi Calm Calm - N/A   Overcast
5:44 AM 48.2 °F 46.4 °F 93% 29.58 in 8.0 mi Calm Calm - N/A   Overcast
5:53 AM 48.9 °F 46.9 °F 93% 29.60 in 10.0 mi Variable 3.5 mph - N/A   Overcast
6:06 AM 48.2 °F 46.4 °F 93% 29.58 in 9.0 mi Calm Calm - N/A   Overcast
6:15 AM 48.2 °F 46.4 °F 93% 29.59 in 9.0 mi Calm Calm - N/A   Overcast
6:22 AM 48.2 °F 48.2 °F 100% 29.59 in 10.0 mi Calm Calm - N/A   Overcast
6:34 AM 48.2 °F 48.2 °F 100% 29.59 in 10.0 mi Variable 3.5 mph - N/A   Overcast
6:41 AM 50.0 °F 48.2 °F 94% 29.59 in 10.0 mi Variable 3.5 mph - N/A   Overcast
6:50 AM 50.0 °F 48.2 °F 94% 29.59 in 10.0 mi Variable 3.5 mph - N/A   Overcast
6:53 AM 50.0 °F 48.0 °F 93% 29.60 in 10.0 mi Variable 3.5 mph - N/A   Overcast
7:53 AM 52.0 °F 48.0 °F 86% 29.60 in 10.0 mi Variable 3.5 mph - N/A   Overcast
8:34 AM 53.6 °F 48.2 °F 82% 29.59 in 10.0 mi Calm Calm - N/A   Mostly Cloudy
8:42 AM 55.4 °F 48.2 °F 77% 29.58 in 10.0 mi Calm Calm - N/A   Scattered Clouds
8:53 AM 55.0 °F 48.0 °F 77% 29.60 in 10.0 mi Calm Calm - N/A   Partly Cloudy
9:10 AM 55.4 °F 48.2 °F 77% 29.58 in 10.0 mi Calm Calm - N/A   Mostly Cloudy
9:53 AM 57.0 °F 48.9 °F 74% 29.60 in 10.0 mi Variable 3.5 mph - N/A   Overcast
10:50 AM 59.0 °F 48.2 °F 67% 29.58 in 10.0 mi SSE 5.8 mph - N/A   Overcast
10:53 AM 59.0 °F 50.0 °F 72% 29.59 in 10.0 mi Calm Calm - N/A   Mostly Cloudy
11:53 AM 63.0 °F 51.1 °F 65% 29.58 in 10.0 mi Variable 5.8 mph - N/A   Partly Cloudy
12:53 PM 63.0 °F 51.1 °F 65% 29.56 in 10.0 mi Variable 4.6 mph - 0.00 in   Scattered Clouds
1:09 PM 64.4 °F 51.8 °F 64% 29.54 in 10.0 mi Variable 3.5 mph - N/A Thunderstorm Thunderstorm
1:53 PM 68.0 °F 45.0 °F 43% 29.56 in 10.0 mi WNW 10.4 mph - N/A Thunderstorm Mostly Cloudy
2:00 PM 66.2 °F 46.4 °F 49% 29.54 in 10.0 mi WNW 13.8 mph 23.0 mph N/A   Mostly Cloudy
2:53 PM 64.9 °F 41.0 °F 42% 29.58 in 10.0 mi WNW 12.7 mph 27.6 mph 0.00 in   Mostly Cloudy
3:53 PM 64.0 °F 41.0 °F 43% 29.60 in 10.0 mi WNW 10.4 mph 23.0 mph N/A   Mostly Cloudy
4:53 PM 60.1 °F 42.1 °F 51% 29.63 in 10.0 mi NW 15.0 mph 25.3 mph N/A   Overcast
5:53 PM 57.9 °F 44.1 °F 60% 29.66 in 10.0 mi West 9.2 mph 23.0 mph N/A   Partly Cloudy
6:53 PM 55.9 °F 42.1 °F 60% 29.66 in 10.0 mi Variable 6.9 mph 17.3 mph N/A   Clear
7:53 PM 54.0 °F 41.0 °F 62% 29.70 in 10.0 mi WNW 5.8 mph - N/A   Scattered Clouds
8:53 PM 53.1 °F 42.1 °F 66% 29.73 in 10.0 mi WNW 4.6 mph - N/A   Overcast
9:53 PM 53.1 °F 42.1 °F 66% 29.75 in 10.0 mi WNW 8.1 mph - N/A   Overcast
10:53 PM 53.1 °F 43.0 °F 69% 29.76 in 10.0 mi West 11.5 mph - N/A   Overcast
11:53 PM 51.1 °F 43.0 °F 74% 29.77 in 10.0 mi NW 5.8 mph - N/A   Overcast